Location: Perugia
(43.1330°N, 12.3670°E)
Time: 05:48:42
(UTC+01:00)

ISS - Pass Details

Date: 28 January 2021
Orbit: 417 x 422 km, 51.6° (Epoch: 08 March)

Event Time Altitude Azimuth Distance (km) Brightness Sun altitude
Rises 18:49:27 0° 298° (WNW) 2,373 0.9 -16.8°
Reaches altitude 10° 18:51:57 10° 317° (NW) 1,509 -0.5 -17.3°
Maximum altitude 18:54:30 20° 5° (N) 1,059 -1.9 -17.7°
Enters shadow 18:54:40 19° 9° (N) 1,061 -1.9 -17.8°
